| time (UTC) | temp F | wind direction | speed knots | gust knots | rain 1hr in | rain 24hr in | rain mn in | humidity % | barometer mb |
| 20260504020003 | 53 | 288 | 17.4 | 22.6 | 0.00 | 0.52 | 0.52 | 61 | 1041.0 |
| 20260504014503 | 55 | 197 | 18.2 | 26.9 | 0.00 | 0.52 | 0.52 | 61 | 1041.1 |
| 20260504013003 | 55 | 186 | 12.2 | 20.0 | 0.00 | 0.52 | 0.52 | 53 | 1041.0 |
| 20260504011503 | 56 | 276 | 8.7 | 19.1 | 0.00 | 0.52 | 0.52 | 49 | 1040.9 |
| 20260504010003 | 57 | 240 | 16.5 | 26.1 | 0.00 | 0.52 | 0.52 | 49 | 1040.5 |
| 20260504004503 | 58 | 232 | 16.5 | 23.5 | 0.00 | 0.52 | 0.52 | 49 | 1040.4 |
| 20260504003003 | 58 | 184 | 14.8 | 28.7 | 0.00 | 0.52 | 0.52 | 43 | 1040.1 |
| 20260504001524 | 60 | 150 | 16.5 | 27.8 | 0.00 | 0.52 | 0.52 | 45 | 1040.0 |
| 20260504000004 | 61 | 162 | 11.3 | 17.4 | 0.00 | 0.52 | 0.52 | 40 | 1039.8 |
| 20260503234504 | 61 | 134 | 13.0 | 25.2 | 0.08 | 0.52 | 0.52 | 35 | 1039.3 |
| 20260503233004 | 62 | 158 | 8.7 | 17.4 | 0.18 | 0.52 | 0.52 | 33 | 1039.1 |
| 20260503231526 | 63 | 262 | 7.8 | 21.7 | 0.22 | 0.52 | 0.52 | 36 | 1038.9 |
| 20260503230006 | 65 | 256 | 24.3 | 32.2 | 0.27 | 0.52 | 0.52 | 40 | 1038.4 |
| 20260503224504 | 66 | 172 | 25.2 | 32.2 | 0.26 | 0.44 | 0.44 | 41 | 1038.3 |
| 20260503223026 | 65 | 197 | 13.0 | 27.8 | 0.25 | 0.34 | 0.35 | 34 | 1037.9 |
| 20260503221504 | 66 | 249 | 12.2 | 18.2 | 0.26 | 0.30 | 0.30 | 31 | 1037.2 |
| 20260503220004 | 68 | 246 | 20.0 | 33.9 | 0.25 | 0.25 | 0.25 | 40 | 1037.3 |
| 20260503214504 | 67 | 212 | 21.7 | 34.8 | 0.18 | 0.22 | 0.18 | 31 | 1036.1 |
| 20260503213004 | 68 | 235 | 18.2 | 30.4 | 0.09 | 0.16 | 0.09 | 34 | 1036.1 |
| 20260503211505 | 68 | 178 | 24.3 | 35.6 | 0.04 | 0.18 | 0.04 | 31 | 1035.3 |
| 20260503210005 | 68 | 156 | 15.6 | 26.1 | 0.00 | 0.19 | 0.00 | 32 | 1035.1 |
| 20260503204504 | 66 | 174 | 12.2 | 22.6 | 0.00 | 0.25 | 0.00 | 23 | 1034.1 |
| 20260503203004 | 68 | 133 | 18.2 | 31.3 | 0.00 | 0.28 | 0.00 | 29 | 1034.0 |
| 20260503201504 | 67 | 162 | 9.6 | 20.9 | 0.00 | 0.38 | 0.00 | 27 | 1033.4 |
| 20260503200004 | 67 | 123 | 17.4 | 27.8 | 0.00 | 0.40 | 0.00 | 27 | 1032.6 |
| 20260503194504 | 66 | 220 | 8.7 | 22.6 | 0.00 | 0.40 | 0.00 | 22 | 1032.1 |
| 20260503193004 | 67 | 245 | 17.4 | 29.5 | 0.00 | 0.40 | 0.00 | 31 | 1031.7 |
| 20260503191504 | 67 | 248 | 20.0 | 31.3 | 0.00 | 0.40 | 0.00 | 34 | 1031.3 |
| 20260503190025 | 67 | 231 | 25.2 | 36.5 | 0.00 | 0.40 | 0.00 | 35 | 1030.7 |
| 20260503184504 | 66 | 231 | 20.9 | 33.0 | 0.00 | 0.40 | 0.00 | 33 | 1030.1 |
| 20260503183004 | 66 | 153 | 22.6 | 34.8 | 0.00 | 0.40 | 0.00 | 36 | 1029.7 |
| 20260503181505 | 65 | 132 | 9.6 | 26.1 | 0.00 | 0.40 | 0.00 | 35 | 1029.3 |
| 20260503180004 | 64 | 66 | 11.3 | 23.5 | 0.00 | 0.40 | 0.00 | 37 | 1028.9 |
| 20260503174504 | 62 | 116 | 3.5 | 11.3 | 0.00 | 0.40 | 0.00 | 29 | 1028.0 |
| 20260503173004 | 63 | 224 | 18.2 | 31.3 | 0.00 | 0.40 | 0.00 | 40 | 1027.6 |
| 20260503171524 | 61 | 236 | 13.0 | 22.6 | 0.00 | 0.40 | 0.00 | 39 | 1027.2 |
| 20260503030004 | 47 | 200 | 6.1 | 8.7 | 0.00 | 0.40 | 0.40 | 61 | 1018.8 |
| 20260503024503 | 49 | 218 | 7.8 | 11.3 | 0.00 | 0.40 | 0.40 | 62 | 1018.5 |
| 20260503023003 | 51 | 225 | 10.4 | 15.6 | 0.00 | 0.40 | 0.40 | 63 | 1018.3 |
| 20260503021503 | 51 | 143 | 13.9 | 20.0 | 0.00 | 0.40 | 0.40 | 58 | 1017.4 |